Terminal Aerodrome Forecast
Issued by NWS Upton, NY

Home | Current Version | Previous Version | Text Only | Print | Product List | Glossary On
Versions: 1 2 3 4 5 6 7 8 9 10 11 12 13 14 15 16 17 18 19 20 21 22 23 24 25 26 27 28 29 30 31 32
000
FTUS41 KOKX 201100
TAFLGA
TAF
KLGA 201125Z 2012/2112 06005KT P6SM SCT035 BKN100
     FM201400 06008KT P6SM SCT040 SCT120
     FM201900 16009KT P6SM SCT050 SCT120
     FM210200 16005KT P6SM SCT050 BKN150
     FM210700 VRB04KT P6SM BKN050 BKN150=

USA.gov is the U.S. government's official web portal to all federal, state and local government web resources and services.